Port Orchard, Washington, United States (98366)
Lat: 47.54N, Lon: 122.64W
Wx Zone: WAZ508
Local Info
Past Weather Observations for Monday, May 23, 2016

NOTE: This archive is for the closest National Weather Service station to Port Orchard. Information may differ from the station used for current weather conditions.

Click here for Long-term Archive

Time Weather Temperature Dewpoint Humidity Pressure Winds Precip Visibility
23:55
Overcast
48°F / 9°C 46°F / 8°C 94% 29.95 in
(1014 mb)
S 3.5 mph
(S 6 kph)
- 10SM
23:35
Overcast
48°F / 9°C 46°F / 8°C 94% 29.98 in
(1015 mb)
S 4.6 mph
(S 7 kph)
- 10SM
23:15
Mostly Cloudy
48°F / 9°C 46°F / 8°C 94% 29.98 in
(1015 mb)
S 5.8 mph
(S 9 kph)
- 10SM
22:55
Partly Cloudy
48°F / 9°C 46°F / 8°C 94% 29.95 in
(1014 mb)
S 5.8 mph
(S 9 kph)
- 10SM
22:35
Clear
48°F / 9°C 46°F / 8°C 94% 29.95 in
(1014 mb)
S 8.1 mph
(S 13 kph)
- 10SM
22:15
Clear
48°F / 9°C 45°F / 7°C 87% 29.95 in
(1014 mb)
SSE 6.9 mph
(SSE 11 kph)
- 10SM
21:55
Clear
50°F / 10°C 45°F / 7°C 82% 29.95 in
(1014 mb)
S 6.9 mph
(S 11 kph)
- 10SM
21:35
Clear
52°F / 11°C 45°F / 7°C 77% 29.95 in
(1014 mb)
S 8.1 mph
(S 13 kph)
- 10SM
21:15
Clear
52°F / 11°C 45°F / 7°C 77% 29.95 in
(1014 mb)
S 8.1 mph
(S 13 kph)
- 10SM
20:55
Clear
52°F / 11°C 45°F / 7°C 77% 29.95 in
(1014 mb)
S 8.1 mph
(S 13 kph)
- 10SM
20:35
Clear
52°F / 11°C 45°F / 7°C 77% 29.95 in
(1014 mb)
S 9.2 mph
(S 15 kph)
- 10SM
20:15
Clear
52°F / 11°C 46°F / 8°C 82% 29.95 in
(1014 mb)
S 9.2 mph
(S 15 kph)
- 10SM
19:55
Clear
54°F / 12°C 46°F / 8°C 77% 29.95 in
(1014 mb)
S 9.2 mph
(S 15 kph)
- 10SM
19:35
Clear
54°F / 12°C 46°F / 8°C 77% 29.95 in
(1014 mb)
S 9.2 mph
(S 15 kph)
- 10SM
19:15
Clear
55°F / 13°C 45°F / 7°C 67% 29.95 in
(1014 mb)
S 9.2 mph
(S 15 kph)
- 10SM
18:55
Clear
57°F / 14°C 46°F / 8°C 67% 29.95 in
(1014 mb)
SW 10.4 mph
(SW 17 kph)
- 10SM
18:35
Partly Cloudy
57°F / 14°C 46°F / 8°C 67% 29.95 in
(1014 mb)
SSE 13.8 mph
(SSE 22 kph)
- 10SM
18:15
Mostly Cloudy
59°F / 15°C 46°F / 8°C 63% 29.95 in
(1014 mb)
SW 16.1 mph
(SW 26 kph)
- 10SM
17:55
Overcast
59°F / 15°C 46°F / 8°C 63% 29.92 in
(1013 mb)
SW 15 mph
(SW 24 kph)
- 10SM
17:35
Overcast
61°F / 16°C 46°F / 8°C 59% 29.92 in
(1013 mb)
SSE 15 mph
(SSE 24 kph)
- 10SM
17:15
Overcast
61°F / 16°C 46°F / 8°C 59% 29.92 in
(1013 mb)
SSE 15 mph
(SSE 24 kph)
- 10SM
16:55
Overcast
63°F / 17°C 46°F / 8°C 56% 29.92 in
(1013 mb)
SSE 13.8 mph
(SSE 22 kph)
- 10SM
16:35
Overcast
61°F / 16°C 46°F / 8°C 59% 29.92 in
(1013 mb)
SSE 15 mph
(SSE 24 kph)
- 10SM
16:15
Overcast
61°F / 16°C 46°F / 8°C 59% 29.92 in
(1013 mb)
S 15 mph
(S 24 kph)
- 10SM
15:55
Mostly Cloudy
63°F / 17°C 46°F / 8°C 56% 29.92 in
(1013 mb)
S 20.7 mph
(S 33 kph)
- 10SM
15:35
Mostly Cloudy
63°F / 17°C 48°F / 9°C 59% 29.92 in
(1013 mb)
S 16.1 mph
(S 26 kph)
- 10SM
15:15
Overcast
64°F / 18°C 48°F / 9°C 56% 29.92 in
(1013 mb)
SW 15 mph
(SW 24 kph)
- 10SM
14:55
Mostly Cloudy
64°F / 18°C 48°F / 9°C 56% 29.92 in
(1013 mb)
S 13.8 mph
(S 22 kph)
- 10SM
14:35
Clear
64°F / 18°C 48°F / 9°C 56% 29.92 in
(1013 mb)
SSE 15 mph
(SSE 24 kph)
- 10SM
14:15
Clear
64°F / 18°C 48°F / 9°C 56% 29.92 in
(1013 mb)
SW 15 mph
(SW 24 kph)
- 10SM
13:55
Partly Cloudy
64°F / 18°C 46°F / 8°C 52% 29.92 in
(1013 mb)
SW 15 mph
(SW 24 kph)
- 10SM
13:35
Mostly Cloudy
63°F / 17°C 46°F / 8°C 56% 29.92 in
(1013 mb)
SW 18.4 mph
(SW 30 kph)
- 10SM
13:15
Mostly Cloudy
63°F / 17°C 45°F / 7°C 52% 29.92 in
(1013 mb)
SW 16.1 mph
(SW 26 kph)
- 10SM
12:55
Overcast
61°F / 16°C 48°F / 9°C 63% 29.95 in
(1014 mb)
SW 17.3 mph
(SW 28 kph)
- 10SM
12:35
Overcast
63°F / 17°C 48°F / 9°C 59% 29.92 in
(1013 mb)
S 16.1 mph
(S 26 kph)
- 10SM
12:15
Mostly Cloudy
61°F / 16°C 46°F / 8°C 59% 29.92 in
(1013 mb)
S 13.8 mph
(S 22 kph)
- 10SM
11:55
Partly Cloudy
61°F / 16°C 48°F / 9°C 63% 29.95 in
(1014 mb)
S 13.8 mph
(S 22 kph)
- 10SM
11:35
Partly Cloudy
63°F / 17°C 48°F / 9°C 59% 29.92 in
(1013 mb)
SSE 17.3 mph
(SSE 28 kph)
- 10SM
11:15
Partly Cloudy
61°F / 16°C 48°F / 9°C 63% 29.92 in
(1013 mb)
SW 17.3 mph
(SW 28 kph)
- 10SM
10:55
Mostly Cloudy
63°F / 17°C 48°F / 9°C 59% 29.92 in
(1013 mb)
SW 13.8 mph
(SW 22 kph)
- 10SM
10:35
Mostly Cloudy
61°F / 16°C 46°F / 8°C 59% 29.95 in
(1014 mb)
SW 12.7 mph
(SW 20 kph)
- 10SM
10:15
Mostly Cloudy
61°F / 16°C 48°F / 9°C 63% 29.95 in
(1014 mb)
SW 15 mph
(SW 24 kph)
- 10SM
09:55
Overcast
57°F / 14°C 50°F / 10°C 77% 29.95 in
(1014 mb)
SSE 17.3 mph
(SSE 28 kph)
- 10SM
09:35
Overcast
59°F / 15°C 48°F / 9°C 68% 29.95 in
(1014 mb)
S 12.7 mph
(S 20 kph)
- 10SM
09:15
Mostly Cloudy
57°F / 14°C 50°F / 10°C 77% 29.95 in
(1014 mb)
S 15 mph
(S 24 kph)
- 10SM
08:55
Clear
57°F / 14°C 50°F / 10°C 77% 29.95 in
(1014 mb)
S 11.5 mph
(S 19 kph)
- 10SM
08:35
Clear
54°F / 12°C 48°F / 9°C 82% 29.95 in
(1014 mb)
S 16.1 mph
(S 26 kph)
- 10SM
08:15
Clear
54°F / 12°C 48°F / 9°C 82% 29.95 in
(1014 mb)
S 12.7 mph
(S 20 kph)
- 10SM
07:55
Clear
54°F / 12°C 50°F / 10°C 88% 29.95 in
(1014 mb)
S 10.4 mph
(S 17 kph)
- 10SM
07:35
Clear
54°F / 12°C 50°F / 10°C 88% 29.95 in
(1014 mb)
S 12.7 mph
(S 20 kph)
- 10SM
07:15
Partly Cloudy
52°F / 11°C 48°F / 9°C 88% 29.95 in
(1014 mb)
S 12.7 mph
(S 20 kph)
- 10SM
06:55
Mostly Cloudy
52°F / 11°C 48°F / 9°C 88% 29.95 in
(1014 mb)
S 12.7 mph
(S 20 kph)
- 10SM
06:35
Mostly Cloudy
52°F / 11°C 48°F / 9°C 88% 29.95 in
(1014 mb)
S 11.5 mph
(S 19 kph)
- 10SM
06:15
Mostly Cloudy
52°F / 11°C 48°F / 9°C 88% 29.95 in
(1014 mb)
S 13.8 mph
(S 22 kph)
- 10SM
05:55
Partly Cloudy
52°F / 11°C 48°F / 9°C 88% 29.95 in
(1014 mb)
S 11.5 mph
(S 19 kph)
- 10SM
05:35
Partly Cloudy
50°F / 10°C 48°F / 9°C 94% 29.95 in
(1014 mb)
S 10.4 mph
(S 17 kph)
- 10SM
05:15
Partly Cloudy
50°F / 10°C 46°F / 8°C 88% 29.95 in
(1014 mb)
S 8.1 mph
(S 13 kph)
- 10SM
04:55
Clear
48°F / 9°C 46°F / 8°C 94% 29.92 in
(1013 mb)
S 9.2 mph
(S 15 kph)
- 10SM
04:35
Clear
48°F / 9°C 46°F / 8°C 94% 29.92 in
(1013 mb)
S 9.2 mph
(S 15 kph)
- 10SM
04:15
Clear
48°F / 9°C 46°F / 8°C 94% 29.92 in
(1013 mb)
S 8.1 mph
(S 13 kph)
- 10SM
03:55
Clear
48°F / 9°C 46°F / 8°C 94% 29.92 in
(1013 mb)
S 6.9 mph
(S 11 kph)
- 10SM
03:35
Clear
48°F / 9°C 46°F / 8°C 94% 29.92 in
(1013 mb)
S 5.8 mph
(S 9 kph)
- 10SM
03:15
Partly Cloudy
48°F / 9°C 48°F / 9°C 100% 29.92 in
(1013 mb)
SSE 8.1 mph
(SSE 13 kph)
- 10SM
02:55
Partly Cloudy
48°F / 9°C 48°F / 9°C 100% 29.92 in
(1013 mb)
SSE 10.4 mph
(SSE 17 kph)
- 10SM
02:35
Partly Cloudy
48°F / 9°C 48°F / 9°C 100% 29.92 in
(1013 mb)
S 6.9 mph
(S 11 kph)
- 10SM
02:15
Partly Cloudy
50°F / 10°C 48°F / 9°C 94% 29.92 in
(1013 mb)
S 6.9 mph
(S 11 kph)
- 10SM
01:55
Partly Cloudy
48°F / 9°C 48°F / 9°C 100% 29.92 in
(1013 mb)
S 6.9 mph
(S 11 kph)
- 10SM
01:35
Partly Cloudy
50°F / 10°C 48°F / 9°C 94% 29.92 in
(1013 mb)
S 6.9 mph
(S 11 kph)
- 10SM
01:15
Overcast
50°F / 10°C 48°F / 9°C 94% 29.92 in
(1013 mb)
S 6.9 mph
(S 11 kph)
- 10SM
00:55
Overcast
50°F / 10°C 48°F / 9°C 94% 29.92 in
(1013 mb)
S 8.1 mph
(S 13 kph)
- 10SM
00:35
Overcast
50°F / 10°C 48°F / 9°C 94% 29.92 in
(1013 mb)
S 8.1 mph
(S 13 kph)
- 10SM
00:15
Mostly Cloudy
50°F / 10°C 48°F / 9°C 94% 29.92 in
(1013 mb)
S 6.9 mph
(S 11 kph)
- 10SM
Time Weather Temperature Dewpoint Humidity Pressure Winds Precip Visibility


Weather for websites

WeatherForYou.com, LLC is not responsible for any damages or problems caused by this service. Current weather conditions are obtained from the closest station including government and personal stations which may have varying degrees of accuracy. Weather forecasts are derived from the NOAA NDFD. Like all things, this site belongs to Jesus Christ... He just trusts us to maintain it. If you have any questions or comments email webmaster@weatherforyou.com

Copyright © 2016, WeatherForYou.com LLC. All rights reserved.